Location: Homewood
(41.1836°S, 175.9581°E)
Time: 21:45:18
(UTC+00:00)

Cosmos 1607 - Visible Passes

Search period start: 21 July 2024 00:00
Search period end: 31 July 2024 00:00
Orbit: 910 x 991 km, 65.0° (Epoch: 20 July)

Date Brightness Start Highest point End Pass type
(mag) Time Alt. Az. Time Alt. Az. Time Alt. Az.
21 Jul 5.4 17:30:52 11° SSW 17:36:06 33° SE 17:41:41 10° ENE visible
22 Jul 6.3 16:04:30 13° SSE 16:05:40 14° SSE 16:08:39 10° ESE visible
22 Jul 4.7 17:48:37 11° SSW 17:54:24 51° SE 18:00:31 10° NE visible
23 Jul 6.0 16:22:19 17° SSE 16:24:23 19° SE 16:28:47 10° E visible
23 Jul 4.0 18:06:26 11° SSW 18:12:33 83° ESE 18:18:53 10° NE visible
24 Jul 5.5 16:40:12 21° S 16:42:56 29° SE 16:48:18 10° ENE visible
24 Jul 4.1 18:24:25 10° SW 18:30:33 60° WNW 18:36:45 10° NNE visible
25 Jul 6.6 15:14:01 11° SE 15:14:01 11° SE 15:14:44 10° SE visible
25 Jul 4.9 16:58:10 26° S 17:01:19 44° SE 17:07:17 10° ENE visible
25 Jul 4.6 18:42:50 10° SW 18:48:24 35° WNW 18:54:02 10° N visible
26 Jul 6.1 08:07:45 10° N 08:08:12 12° N 08:08:12 12° N visible
26 Jul 6.3 15:32:04 17° SE 15:32:04 17° SE 15:35:10 10° ESE visible
26 Jul 4.1 17:16:13 30° SSW 17:19:30 71° SE 17:25:48 10° NE visible
27 Jul 5.8 08:25:23 10° NNW 08:26:54 19° NNW 08:26:54 19° NNW visible
27 Jul 5.8 15:50:13 25° SE 15:50:13 25° SE 15:54:51 10° E visible
27 Jul 3.9 17:34:22 30° SW 17:37:33 71° WNW 17:43:50 10° NNE visible
28 Jul 5.2 06:58:18 10° NNE 07:01:24 20° NE 07:01:24 20° NE visible
28 Jul 5.8 08:43:32 10° NW 08:45:36 22° NW 08:45:36 22° NW visible
28 Jul 5.1 16:08:27 38° SE 16:08:27 38° SE 16:14:01 10° ENE visible
28 Jul 4.3 17:52:37 27° WSW 17:55:27 42° WNW 18:01:20 10° N visible
29 Jul 4.4 07:15:01 10° N 07:20:05 39° NE 07:20:05 39° NE visible
29 Jul 6.0 09:02:10 10° WNW 09:04:16 21° WNW 09:04:16 21° WNW visible
29 Jul 4.3 16:26:49 59° ESE 16:26:49 59° ESE 16:32:41 10° NE visible
29 Jul 5.0 18:10:59 20° W 18:13:13 24° WNW 18:18:07 10° NNW visible
30 Jul 3.7 07:32:26 10° NNW 07:38:27 68° ENE 07:38:43 67° E visible
30 Jul 6.3 09:21:15 10° W 09:22:54 16° W 09:22:54 16° W visible
30 Jul 6.7 15:01:05 11° E 15:01:05 11° E 15:01:21 10° E visible
30 Jul 4.0 16:45:16 71° NNE 16:45:16 71° NNE 16:50:52 10° NNE visible
30 Jul 5.6 18:29:27 12° W 18:30:51 13° WNW 18:33:35 10° NW visible
